Wind_Speed
7 6 6 6 5 5 6 7 8 8 8 8 7 7 8 8 7 7 7 7 7 7 7 6 6 6 6 7 7 7 7 7 6 6 5 5 5 5 5 6 6 7 7
7 6 6 5 5 5 6 7 8 8 8 8 7 7 8 8 8 8 7 7 7 7 7 7 7 7 6 7 7 7 7 8 7 7 6 6 6 6 6 6 6 7 8
6 5 5 5 6 6 6 6 7 8 8 8 8 8 8 8 8 8 8 7 7 7 6 6 7 7 7 7 8 8 8 8 8 8 7 6 6 7 7 7 7 8 8
7 6 7 7 7 7 7 7 8 8 8 8 9 9 9 9 9 9 9 8 7 7 6 7 7 8 7 8 8 8 8 8 9 8 8 8 8 8 8 8 8 9 9
9 8 9 9 9 9 9 9 9 9 9 9 10 10 10 10 10 10 9 9 8 8 8 8 8 9 9 9 9 9 9 9 9 8 9 8 8 8 9 9 10 10 11
10 10 11 11 10 10 10 10 10 10 11 11 11 11 11 11 11 10 10 10 9 9 9 9 9 10 10 10 10 11 10 10 9 9 10 9 10 10 10 11 12 12 13
12 12 12 12 12 12 11 11 11 12 12 12 12 12 12 12 12 11 11 11 11 11 11 10 11 11 11 11 11 11 11 10 10 11 11 11 12 12 13 13 14 14 14
14 13 12 12 12 12 12 12 12 12 12 13 13 13 13 13 12 12 12 12 12 13 12 12 13 13 13 13 13 13 12 12 12 12 13 13 14 14 15 16 16 16 16
15 15 14 13 13 14 13 13 13 13 13 14 14 14 14 14 14 14 14 14 14 14 14 14 14 14 14 15 15 15 14 14 14 14 14 15 15 16 17 18 18 18 18
15 15 15 14 14 14 14 14 14 14 15 15 15 15 15 15 15 15 16 15 15 16 16 15 16 16 16 16 16 16 16 16 16 17 17 17 17 18 19 19 20 20 20
16 15 15 15 15 16 15 15 15 15 16 16 16 16 16 16 16 16 16 17 16 16 17 16 17 17 18 18 18 18 17 17 18 18 18 19 19 20 20 21 21 22 22
17 16 17 17 17 17 17 17 17 17 17 17 17 17 17 17 18 18 18 18 18 18 19 18 18 18 19 19 19 19 19 19 19 20 20 21 21 22 22 23 23 24 24
18 18 18 18 18 19 19 18 18 19 19 18 18 19 19 19 19 20 21 20 20 20 21 21 21 21 21 21 21 21 21 21 22 22 22 22 23 23 23 24 24 25 25
19 19 19 19 19 19 19 20 20 21 21 20 19 20 20 20 21 22 22 22 22 22 23 22 23 23 23 23 23 23 23 23 24 24 24 24 25 25 25 25 25 25 25
20 21 21 20 20 20 20 21 21 21 21 21 21 21 21 21 22 23 23 23 24 24 24 24 24 24 24 25 25 25 25 25 25 25 25 26 25 26 26 27 26 26 25
22 21 22 22 22 22 22 22 22 22 22 22 22 23 23 23 24 24 24 25 25 25 25 25 25 26 26 26 26 26 26 26 26 26 27 27 27 27 27 27 27 27 27
23 22 22 23 23 23 23 23 23 23 23 24 24 24 25 26 26 27 26 26 26 26 26 26 26 27 27 28 27 27 27 28 28 28 28 28 28 28 27 28 29 29 29
25 24 24 24 25 25 25 25 25 25 26 26 26 26 27 27 27 28 28 27 27 28 28 28 28 27 27 27 27 28 28 28 28 29 29 29 29 29 29 30 30 30 30
27 27 26 26 26 26 26 27 27 27 28 28 28 28 29 29 29 29 30 29 29 29 29 29 29 28 28 29 29 30 30 30 30 30 30 30 31 31 31 31 31 31 31
28 28 28 28 28 28 28 28 28 29 29 29 30 30 30 30 30 30 30 30 30 30 30 31 30 29 30 30 31 31 31 31 31 32 32 32 32 33 33 33 33 33 33
30 30 30 29 29 30 30 31 31 30 30 30 30 30 31 31 31 31 31 32 32 32 32 32 32 30 31 31 31 32 32 32 32 32 32 32 33 33 33 34 34 33 33
31 31 31 30 31 31 32 32 32 32 32 31 31 31 31 32 33 33 32 33 33 33 33 33 32 31 31 32 32 32 33 33 33 33 32 32 32 32 33 33 33 33 33
33 33 32 32 32 32 32 33 33 33 32 32 33 32 32 33 33 34 34 33 34 34 34 33 31 31 31 32 32 33 33 33 33 33 33 32 32 33 33 33 34 33 33
34 33 33 33 32 33 33 34 34 33 33 34 34 33 33 33 33 33 34 34 34 34 34 33 32 31 32 32 33 33 32 32 32 32 33 33 33 34 35 34 34 34 34
34 34 34 34 34 34 35 35 34 34 34 35 35 34 34 34 33 33 33 34 33 32 32 32 32 31 31 31 31 31 31 31 31 32 32 32 33 34 34 35 35 35 34
33 33 34 35 35 36 36 36 35 35 34 34 34 34 34 34 33 32 32 32 32 32 32 32 32 31 31 30 30 30 30 31 31 31 32 32 32 32 32 33 33 33 33
Wind_Direction
343 348 350 353 358 2 7 10 12 11 8 8 11 15 15 11 11 12 10 7 7 7 6 7 7 10 6 1 357 354 354 354 347 343 336 339 344 341 339 334 329 326 323
337 339 340 339 341 344 350 354 355 0 1 359 1 3 6 4 3 2 360 357 354 354 358 7 6 4 0 356 354 354 353 353 352 344 339 341 339 341 335 330 327 325 323
322 323 322 324 325 329 333 339 343 348 349 349 350 349 351 354 358 357 355 352 348 350 352 353 354 352 351 347 347 343 339 339 338 341 341 338 338 335 330 326 326 325 326
303 309 308 309 313 314 316 322 326 332 336 337 339 339 339 341 345 347 349 350 348 343 339 339 338 337 336 334 336 335 332 329 328 329 334 336 336 332 328 324 323 325 324
294 303 311 307 302 302 304 308 312 317 321 323 325 328 331 332 336 337 338 338 335 334 328 324 326 327 326 325 332 330 326 324 323 321 324 326 326 325 323 319 318 318 319
290 297 301 305 302 299 299 299 303 307 309 312 314 317 320 321 322 323 325 325 326 326 325 319 318 320 320 319 322 322 318 315 314 314 313 313 313 315 318 317 314 315 316
285 287 292 295 298 296 296 298 299 301 304 306 310 312 313 314 317 316 318 317 319 320 319 316 311 312 313 315 317 317 314 309 307 307 306 306 307 306 308 310 311 312 314
285 282 284 289 292 293 294 294 296 296 299 302 305 307 310 311 312 313 312 310 311 313 312 311 309 306 306 308 309 307 304 303 304 304 302 302 302 304 305 306 307 308 309
285 286 282 283 287 288 290 293 292 290 292 298 302 306 308 307 307 308 307 306 308 307 306 304 305 306 304 304 303 302 301 300 300 301 300 300 301 302 304 305 304 306 310
281 285 284 280 283 284 286 289 291 291 291 293 296 300 303 305 305 307 308 306 305 305 302 300 300 300 302 303 300 298 297 298 298 298 297 297 299 299 300 301 302 306 308
280 282 285 282 281 282 283 285 287 289 289 291 293 294 296 298 301 304 306 305 303 303 303 299 298 298 299 300 299 300 298 298 299 298 297 296 298 299 299 300 300 302 304
281 280 282 282 282 283 283 284 285 286 288 290 292 293 292 293 295 298 300 300 299 298 299 296 295 296 297 298 297 298 297 297 297 297 297 296 295 296 297 298 298 301 302
280 280 281 283 284 286 285 285 285 285 286 287 289 289 289 289 293 296 298 299 297 295 295 294 294 295 295 295 294 294 294 294 295 295 296 297 298 297 296 296 297 299 301
276 277 277 279 283 285 286 286 284 285 286 287 287 288 288 292 294 296 298 297 297 296 295 293 293 294 294 294 293 293 293 293 293 294 295 295 296 298 298 297 297 298 300
273 274 275 276 280 283 284 284 284 284 285 287 289 288 290 289 292 293 295 296 297 296 296 293 292 292 292 292 292 292 292 293 293 293 294 294 295 296 297 298 298 299 300
272 273 275 276 279 281 283 284 284 285 287 290 291 291 292 292 291 291 292 293 293 293 294 293 293 291 291 290 290 291 292 292 292 293 294 294 293 294 296 298 299 300 301
277 276 276 278 279 279 281 284 286 287 289 291 292 292 293 292 291 291 291 290 290 290 291 290 291 291 290 289 289 291 290 291 291 292 292 293 294 294 296 297 298 299 299
275 275 276 276 277 279 281 283 285 286 288 290 290 290 291 291 290 290 291 290 289 289 289 288 289 290 289 290 291 290 290 290 290 291 291 292 293 292 293 294 294 295 297
273 274 275 276 276 278 280 283 284 285 286 286 287 288 290 290 290 289 290 289 289 289 288 287 287 287 287 288 289 288 288 289 289 289 289 290 290 291 292 292 293 294 295
273 273 275 275 275 276 278 280 282 283 285 286 286 287 288 289 290 291 290 289 290 290 288 288 287 286 287 287 286 287 288 288 288 287 287 288 289 289 290 290 291 293 293
274 274 274 273 274 276 277 279 280 283 285 285 285 286 287 288 288 289 290 290 290 290 289 289 287 287 287 287 287 287 287 287 288 288 288 287 287 287 288 289 290 291 292
273 274 274 274 274 276 277 278 280 283 284 284 284 285 286 287 288 288 290 291 291 291 289 289 287 287 287 286 287 287 286 286 287 288 288 288 287 288 289 289 290 290 292
274 274 273 274 275 276 277 279 281 282 282 283 284 286 287 287 288 288 290 291 292 292 291 288 287 287 288 287 288 288 286 286 287 288 288 289 288 288 289 289 289 289 290
273 275 275 276 277 277 278 279 281 281 282 284 285 286 286 287 288 288 290 291 292 293 293 290 287 287 288 288 288 288 286 286 288 289 289 290 290 290 289 288 288 288 290
275 275 275 276 277 278 279 280 280 281 282 283 284 284 284 285 286 286 288 289 291 292 292 293 290 287 288 288 288 287 284 284 285 287 288 289 291 291 290 288 288 288 288
275 275 276 277 277 279 280 281 280 281 282 283 283 283 283 284 286 286 287 288 289 290 291 293 293 289 287 287 287 286 284 286 286 287 288 289 290 291 291 290 289 288 288
Height
5907 5906 5905 5905 5904 5904 5904 5903 5903 5902 5901 5901 5900 5900 5899 5898 5897 5896 5895 5894 5894 5893 5893 5892 5891 5891 5890 5889 5889 5888 5887 5887 5886 5885 5885 5884 5884 5884 5883 5882 5882 5881 5880
5907 5906 5906 5905 5905 5905 5904 5904 5903 5903 5902 5901 5901 5900 5899 5899 5898 5897 5896 5895 5894 5893 5893 5892 5892 5891 5890 5889 5888 5888 5887 5887 5886 5885 5884 5884 5884 5883 5882 5881 5881 5880 5880
5906 5906 5906 5906 5905 5905 5905 5904 5904 5903 5903 5902 5901 5900 5900 5899 5898 5897 5896 5895 5894 5894 5893 5892 5892 5891 5890 5889 5888 5887 5887 5886 5885 5884 5884 5883 5883 5882 5881 5880 5879 5879 5878
5905 5905 5905 5906 5905 5905 5905 5905 5904 5903 5903 5902 5901 5901 5900 5899 5899 5898 5896 5895 5894 5894 5893 5892 5891 5890 5889 5888 5887 5887 5886 5886 5885 5884 5883 5883 5882 5881 5880 5879 5878 5878 5877
5905 5904 5905 5905 5905 5904 5904 5904 5903 5903 5902 5902 5901 5900 5900 5899 5898 5897 5896 5895 5894 5893 5892 5892 5891 5890 5889 5888 5886 5886 5885 5884 5884 5883 5883 5882 5881 5880 5879 5878 5877 5876 5875
5905 5904 5904 5904 5904 5903 5903 5903 5902 5902 5901 5901 5900 5899 5899 5898 5897 5896 5895 5894 5894 5893 5891 5890 5889 5889 5887 5886 5886 5885 5884 5883 5882 5882 5881 5880 5879 5878 5877 5876 5875 5874 5873
5904 5903 5903 5902 5902 5902 5901 5901 5901 5900 5900 5899 5899 5898 5897 5896 5895 5894 5894 5893 5892 5891 5890 5889 5888 5887 5886 5885 5884 5883 5882 5881 5880 5879 5879 5878 5877 5876 5875 5874 5873 5871 5870
5902 5901 5900 5900 5899 5899 5899 5899 5899 5898 5898 5897 5897 5896 5895 5894 5893 5892 5892 5891 5890 5889 5888 5887 5886 5885 5884 5883 5882 5881 5880 5879 5878 5877 5876 5875 5874 5873 5872 5871 5869 5868 5866
5899 5898 5897 5897 5897 5896 5896 5896 5896 5896 5895 5895 5894 5894 5893 5892 5891 5890 5889 5888 5887 5886 5885 5884 5883 5882 5881 5880 5879 5878 5877 5875 5874 5873 5873 5872 5870 5869 5868 5867 5865 5864 5862
5896 5895 5894 5894 5894 5894 5893 5893 5893 5893 5892 5892 5891 5891 5890 5889 5888 5887 5886 5885 5884 5883 5882 5881 5880 5879 5878 5876 5875 5874 5873 5872 5871 5870 5869 5868 5867 5865 5864 5863 5861 5859 5858
5893 5892 5892 5891 5891 5891 5890 5890 5890 5889 5889 5888 5888 5887 5886 5885 5885 5884 5883 5882 5880 5879 5878 5877 5876 5875 5874 5873 5871 5870 5869 5868 5867 5866 5864 5863 5862 5861 5859 5858 5856 5855 5853
5889 5888 5888 5888 5888 5887 5887 5887 5887 5886 5885 5884 5884 5883 5882 5882 5881 5880 5879 5877 5876 5875 5874 5873 5872 5871 5870 5868 5867 5866 5865 5863 5862 5861 5859 5858 5857 5855 5854 5852 5851 5849 5847
5885 5885 5885 5884 5884 5883 5883 5883 5882 5882 5881 5880 5879 5878 5878 5877 5876 5875 5874 5872 5871 5870 5869 5868 5867 5866 5865 5864 5862 5861 5860 5858 5857 5855 5854 5853 5851 5850 5848 5846 5845 5843 5841
5881 5881 5880 5880 5880 5879 5878 5878 5877 5877 5876 5875 5874 5874 5873 5872 5871 5870 5869 5867 5866 5865 5864 5863 5861 5860 5859 5858 5856 5855 5854 5852 5851 5849 5848 5846 5845 5843 5842 5840 5838 5836 5834
5877 5877 5876 5876 5875 5875 5874 5873 5872 5872 5871 5870 5869 5868 5866 5866 5865 5864 5863 5862 5860 5859 5858 5856 5855 5854 5853 5852 5850 5849 5847 5846 5845 5843 5841 5840 5838 5837 5835 5833 5831 5829 5827
5872 5872 5871 5871 5871 5870 5869 5868 5867 5866 5866 5865 5864 5862 5861 5860 5859 5858 5857 5856 5854 5853 5852 5850 5849 5848 5846 5845 5843 5842 5841 5839 5838 5836 5834 5833 5832 5830 5828 5826 5824 5822 5820
5867 5867 5866 5866 5865 5864 5863 5862 5862 5861 5860 5859 5858 5857 5856 5854 5853 5852 5850 5849 5848 5846 5845 5844 5842 5841 5839 5837 5836 5834 5833 5832 5831 5829 5828 5826 5825 5823 5821 5819 5817 5815 5812
5861 5861 5860 5860 5859 5858 5858 5857 5856 5855 5854 5853 5851 5850 5849 5848 5847 5845 5843 5842 5840 5839 5838 5836 5835 5833 5832 5830 5828 5827 5825 5824 5823 5821 5820 5818 5817 5815 5813 5812 5810 5808 5805
5855 5854 5854 5853 5853 5852 5851 5851 5850 5849 5847 5846 5844 5843 5842 5840 5839 5837 5836 5834 5833 5831 5830 5829 5827 5825 5824 5822 5820 5819 5817 5816 5815 5813 5812 5810 5809 5807 5805 5803 5801 5799 5798
5848 5847 5846 5846 5845 5845 5845 5844 5843 5842 5840 5839 5837 5835 5834 5832 5831 5829 5828 5826 5824 5823 5821 5820 5818 5817 5815 5813 5812 5810 5809 5808 5806 5805 5803 5801 5800 5798 5796 5794 5793 5791 5789
5839 5839 5838 5838 5838 5837 5837 5836 5835 5833 5832 5830 5829 5828 5826 5824 5823 5821 5820 5818 5816 5814 5813 5811 5809 5808 5806 5804 5803 5801 5800 5798 5797 5795 5794 5792 5791 5789 5787 5785 5783 5781 5779
5831 5831 5830 5830 5830 5829 5829 5828 5827 5825 5824 5822 5821 5819 5817 5816 5814 5812 5811 5809 5807 5805 5803 5802 5800 5798 5797 5795 5793 5792 5790 5788 5787 5786 5784 5783 5781 5779 5777 5775 5773 5771 5769
5823 5822 5822 5821 5821 5820 5820 5819 5818 5816 5815 5814 5812 5810 5809 5807 5805 5803 5802 5799 5798 5796 5794 5792 5790 5789 5787 5785 5784 5782 5780 5779 5777 5776 5774 5773 5771 5769 5767 5765 5763 5761 5759
5814 5813 5813 5813 5812 5811 5811 5810 5809 5807 5806 5804 5803 5801 5800 5798 5796 5794 5792 5791 5789 5787 5785 5783 5781 5779 5777 5776 5774 5772 5771 5769 5768 5766 5765 5763 5761 5759 5757 5755 5753 5751 5748
5805 5804 5804 5803 5802 5802 5801 5800 5799 5797 5796 5795 5793 5792 5790 5789 5787 5786 5784 5782 5780 5778 5776 5773 5771 5770 5768 5767 5765 5762 5761 5760 5759 5757 5755 5753 5751 5749 5746 5744 5742 5740 5738
5795 5795 5794 5794 5793 5792 5791 5790 5788 5787 5786 5784 5783 5782 5781 5780 5778 5777 5775 5773 5771 5769 5766 5764 5763 5761 5759 5757 5755 5754 5752 5751 5749 5748 5746 5744 5742 5739 5737 5734 5732 5730 5728